Wind_Speed
22 23 25 25 24 22 22 22 20 19 21 21 20 21 20 20 19 17 17 17 16 11 8 16 29 33 33 32 32 33 33 33 33 31 30 29 28 28 27 26 24 24 23 23 22 21 21 20 20 19 19 20 20 20 20 19 18 17 16 15 15 14 13
22 23 24 24 22 21 19 17 16 20 23 22 21 22 21 20 19 18 16 15 14 10 7 9 22 29 31 31 32 33 34 34 33 31 29 28 26 26 26 27 26 26 25 25 24 23 22 21 21 21 21 21 21 20 20 20 19 18 18 17 16 15 14
23 24 24 21 21 22 19 16 17 22 25 24 22 19 18 18 17 16 16 16 14 9 7 6 13 22 27 30 32 34 37 37 34 31 29 28 27 25 25 26 27 26 25 25 25 25 23 23 23 23 22 22 21 20 20 20 20 20 18 17 17 16 15
24 23 21 18 18 20 21 20 21 23 24 25 24 18 15 16 13 10 11 15 16 12 9 7 7 15 21 25 27 30 36 39 36 33 31 30 28 26 25 27 27 26 25 23 24 25 25 25 25 24 23 22 21 20 20 20 21 20 19 18 18 18 17
25 22 22 21 20 20 21 22 21 21 21 23 24 19 16 15 12 9 8 10 14 15 12 9 6 12 19 20 22 24 31 37 37 34 32 31 30 28 27 28 27 26 25 24 23 24 25 26 26 25 22 21 21 21 21 20 21 21 22 21 20 20 19
28 24 24 25 25 23 24 23 21 20 18 19 22 19 16 14 12 12 10 8 9 13 14 11 7 10 19 17 19 23 25 30 33 33 32 30 30 30 29 29 29 29 28 26 25 24 25 25 25 22 20 20 20 20 20 20 21 22 24 24 23 22 21
28 25 25 27 29 28 26 25 23 21 20 21 23 21 16 13 13 16 15 12 9 9 12 10 6 6 15 15 17 21 23 26 29 31 32 33 34 33 33 32 31 30 29 27 26 25 26 26 25 23 21 19 19 19 19 18 19 22 24 25 25 24 23
28 26 27 29 32 31 29 27 26 25 23 23 24 23 22 19 16 17 17 17 14 8 8 10 7 4 8 12 16 20 23 25 26 26 28 33 37 37 35 34 32 31 31 30 29 27 26 28 28 27 24 22 21 20 19 18 18 21 23 25 26 26 25
31 30 29 31 34 34 32 31 30 28 27 25 22 22 25 24 19 16 16 18 18 13 8 9 9 7 5 9 14 17 20 21 20 19 20 25 32 34 33 32 31 31 33 35 34 31 29 29 29 29 28 26 25 23 22 21 21 22 24 26 28 28 28
35 35 33 33 36 36 34 33 32 31 30 26 22 21 23 21 18 15 13 13 16 17 13 10 10 9 7 9 14 15 17 18 17 17 16 18 24 28 28 28 28 30 31 33 35 35 34 34 33 30 29 28 28 28 28 27 25 24 23 25 28 29 29
38 38 36 35 36 37 36 34 34 33 31 26 23 23 23 21 18 16 13 11 12 15 15 13 12 10 7 8 13 14 15 15 15 16 17 17 21 24 25 26 27 29 29 30 32 34 36 38 37 34 32 31 30 29 29 27 24 22 22 22 24 26 27
40 40 38 36 36 37 38 37 36 35 32 28 26 25 24 24 21 18 16 13 11 12 16 16 15 14 10 8 10 11 12 13 14 16 16 16 18 20 22 25 27 29 29 28 29 30 33 37 39 38 36 34 32 32 32 29 27 27 27 25 23 23 23
40 41 41 39 37 37 38 38 38 37 34 31 29 27 26 26 24 20 18 16 13 12 15 17 18 16 13 11 11 10 11 12 13 15 16 16 16 17 20 23 26 28 29 29 29 29 31 33 36 38 37 36 36 35 35 34 32 32 32 28 24 22 22
38 39 41 40 38 37 37 38 38 38 36 34 32 30 28 27 26 24 22 20 17 15 16 17 19 18 15 14 13 12 12 13 13 13 14 15 17 18 19 20 23 25 27 28 29 29 29 30 32 35 36 36 37 36 35 35 33 31 31 30 26 24 25
38 38 39 40 39 37 37 37 38 38 39 38 36 33 31 29 27 27 26 24 22 19 18 18 19 19 18 16 15 15 14 14 13 11 10 11 12 14 14 15 17 19 22 24 26 27 28 28 30 34 36 36 36 35 35 35 34 33 33 33 30 27 27
36 38 39 40 40 39 38 37 37 38 40 42 40 37 34 31 30 29 28 27 26 23 21 20 19 20 20 18 17 17 17 16 15 13 11 9 9 10 10 9 11 13 14 15 18 22 25 27 29 32 35 36 36 36 35 35 35 36 35 34 33 30 28
32 36 39 39 40 40 39 37 37 38 40 42 41 38 36 34 33 32 31 30 28 26 25 24 22 22 22 21 20 19 18 18 17 16 15 13 11 11 11 11 12 13 13 13 15 17 21 23 26 28 31 34 35 36 37 36 35 36 36 35 35 33 31
30 33 36 38 38 39 38 37 37 38 40 41 40 39 37 36 35 34 33 31 29 28 28 28 27 26 25 24 23 21 20 19 18 17 16 14 13 13 12 13 15 15 14 15 15 15 17 19 22 24 27 31 33 36 38 37 35 35 34 33 33 33 34
29 30 33 36 37 37 36 36 38 39 40 41 39 38 38 39 38 37 35 32 31 32 32 32 33 32 30 27 25 23 22 21 20 19 17 16 15 14 14 16 17 16 15 15 15 15 14 15 19 22 25 29 33 36 38 36 34 31 29 28 29 31 33
27 29 31 34 36 37 37 36 36 38 41 41 39 37 38 40 41 40 37 33 31 33 34 33 33 34 33 30 28 26 24 22 21 21 20 19 19 18 18 18 16 15 15 14 15 17 15 13 15 18 22 27 30 32 30 28 25 22 21 21 24 27 30
24 28 31 34 35 36 38 37 35 36 40 41 40 40 40 40 42 42 40 35 30 28 29 28 26 28 31 31 30 28 27 26 24 23 22 22 22 22 22 20 16 16 17 15 16 18 17 15 14 15 17 20 20 20 20 20 19 17 17 17 19 21 23
21 25 30 33 34 35 37 38 38 39 40 40 41 42 42 42 41 41 41 38 31 27 27 26 23 23 26 29 30 30 29 27 25 23 23 23 24 25 25 23 21 22 22 20 19 20 20 19 18 16 15 14 14 14 16 17 16 15 14 14 14 15 16
20 22 27 31 34 34 36 38 40 42 43 42 41 42 42 43 42 39 38 36 33 30 29 28 24 21 20 22 26 29 29 28 25 23 23 23 25 27 27 26 25 24 23 21 20 21 22 22 21 21 20 19 18 18 19 18 17 16 15 14 14 16 17
19 21 24 28 31 33 34 37 39 43 45 45 44 43 42 42 42 40 36 33 31 31 30 27 24 21 17 17 20 24 26 27 26 25 24 23 24 28 30 29 28 27 26 24 22 23 24 25 26 26 26 26 25 23 22 22 22 21 20 18 18 17 18
19 20 22 25 28 31 32 33 36 40 44 45 45 44 43 42 42 41 38 34 32 32 31 27 24 22 21 19 20 21 24 25 24 23 23 22 22 25 30 30 29 29 29 27 25 25 25 26 27 26 25 24 22 21 21 21 21 20 19 18 17 16 16
20 20 21 23 25 28 30 29 31 35 39 42 43 43 44 44 42 41 39 36 33 32 32 30 26 24 24 23 20 20 22 24 23 21 21 21 20 20 22 25 27 28 29 28 27 26 25 24 24 23 22 21 20 19 20 20 20 19 19 18 18 18 18
19 21 22 23 24 26 27 27 27 29 34 38 39 39 42 43 43 41 40 38 36 34 34 33 29 25 22 20 18 17 19 22 25 24 22 22 21 18 17 18 21 24 25 26 24 22 20 19 18 18 19 20 21 22 22 22 22 22 21 20 20 20 20
17 19 21 22 23 24 25 25 24 26 29 34 37 38 39 41 41 40 39 38 37 36 36 35 33 29 26 26 25 26 27 26 26 26 25 23 22 20 18 17 17 18 20 21 21 19 18 17 16 16 17 19 21 22 22 23 23 24 24 24 24 24 24
15 17 18 20 22 23 24 23 23 24 27 30 34 37 39 40 40 40 40 39 38 37 37 37 37 35 34 35 36 34 31 27 24 24 25 24 22 20 19 18 18 20 20 20 21 21 22 21 20 19 19 20 21 23 24 25 25 26 26 27 27 27 27
13 14 16 17 19 21 22 23 23 24 26 27 30 34 36 36 35 35 36 38 38 37 37 38 39 39 38 37 34 30 27 26 23 20 21 22 21 20 18 17 18 19 21 21 22 22 23 23 23 23 22 23 24 25 27 28 29 30 30 30 30 30 30
11 12 15 17 18 19 21 22 23 24 24 23 25 28 31 33 33 29 27 28 31 33 34 36 38 39 38 36 32 27 25 24 21 19 19 20 21 20 19 19 19 19 20 21 21 21 21 22 23 23 24 25 26 27 29 30 31 32 32 32 32 32 32
8 10 14 18 20 21 23 25 26 25 23 22 22 22 24 26 27 26 25 25 25 25 26 29 33 34 33 30 27 24 22 22 21 19 20 21 22 22 22 22 22 22 22 23 23 23 23 24 24 25 26 27 28 29 31 32 33 34 35 36 36 35 35
9 9 11 17 22 23 23 24 27 27 25 22 21 19 19 20 21 21 22 23 23 21 20 22 24 25 24 23 21 20 20 20 21 21 21 22 22 23 23 24 24 24 24 25 26 27 28 28 29 29 30 30 31 31 32 34 35 36 37 38 38 39 39
10 9 8 11 16 19 19 20 24 26 25 24 22 21 20 20 20 20 21 21 21 20 20 19 19 19 19 18 18 18 19 20 21 22 22 23 23 24 24 25 25 26 26 26 27 28 29 30 31 32 33 33 34 34 35 35 36 37 38 39 39 40 40
11 9 7 7 9 13 15 16 18 22 24 23 22 21 20 20 20 20 20 20 19 18 18 18 18 18 18 18 18 19 20 21 22 23 23 24 24 25 25 26 26 27 27 27 28 28 29 29 30 31 32 33 34 35 36 36 37 37 38 39 40 41 42
10 8 7 6 7 8 11 12 13 16 19 19 17 16 18 18 18 18 17 17 16 15 15 15 15 16 16 16 17 17 18 19 20 22 23 23 24 24 25 25 26 26 27 27 27 28 28 29 30 31 32 32 34 35 35 36 36 37 37 38 39 40 41
9 7 6 6 7 7 8 9 10 11 13 14 13 13 14 14 14 13 12 12 11 11 12 12 13 14 14 15 15 16 16 17 18 19 20 21 21 21 21 22 23 23 24 25 25 26 26 27 27 28 29 30 31 32 34 35 36 36 37 37 38 38 39
Wind_Direction
199 196 200 204 209 213 214 214 217 225 228 224 227 232 233 235 240 244 244 243 246 262 260 213 204 204 205 206 208 209 208 206 203 202 204 202 199 196 194 197 205 209 210 209 207 203 203 205 204 205 208 207 203 201 200 201 201 199 199 199 200 202 199
204 199 197 198 203 209 214 216 223 230 228 222 227 233 231 229 235 243 244 241 242 258 275 221 205 206 208 209 212 214 214 211 206 203 205 206 201 197 195 195 201 208 210 210 209 207 207 208 208 207 210 212 210 207 205 205 206 205 202 202 202 204 205
208 206 200 197 198 203 207 209 215 224 224 219 221 225 225 226 235 246 249 246 243 250 273 251 206 203 205 206 211 216 216 214 210 204 205 208 206 200 196 196 201 207 210 210 208 208 209 212 214 212 213 218 217 214 210 208 211 212 208 206 205 207 210
202 206 207 206 201 197 199 205 211 217 221 222 222 219 219 224 233 247 254 251 248 246 258 278 227 199 199 201 207 214 214 210 207 205 205 207 208 204 201 200 202 206 211 210 208 208 210 214 219 219 217 221 224 223 217 212 214 217 216 213 209 208 212
192 198 210 215 210 201 201 209 213 213 218 225 227 224 225 228 235 248 252 249 250 247 248 281 280 203 194 197 199 203 206 202 201 205 206 207 208 207 204 203 204 207 211 211 208 208 210 214 221 223 221 224 229 230 226 219 218 220 220 219 215 212 211
193 200 210 215 214 208 207 212 213 209 210 217 222 223 229 236 244 247 245 238 246 248 247 273 296 204 190 191 191 191 196 199 201 206 209 209 209 210 210 207 205 207 210 211 210 206 207 213 221 224 222 223 228 231 230 224 221 222 222 222 221 219 216
195 205 211 213 215 213 213 217 217 213 212 215 217 216 217 227 241 244 242 237 237 248 247 261 293 208 188 188 189 187 190 196 201 207 212 213 212 212 214 212 210 211 212 215 216 210 205 207 214 219 218 219 222 226 227 223 222 223 223 222 223 223 221
197 205 209 211 216 217 217 219 221 219 218 220 220 219 217 219 230 239 242 242 240 244 244 246 261 238 191 191 193 191 192 196 202 210 215 216 214 212 214 216 216 217 218 218 219 218 212 207 209 213 214 215 218 222 224 222 220 222 222 222 222 222 223
202 205 205 206 211 215 216 216 219 218 217 218 220 223 223 220 221 229 235 240 242 241 239 236 236 237 219 201 196 197 198 200 207 217 218 214 211 211 215 218 221 223 223 220 217 217 218 217 215 215 214 212 213 216 218 218 217 217 218 220 220 220 221
207 208 204 199 204 211 213 213 215 215 214 214 213 215 216 212 211 214 216 227 237 238 238 235 228 233 237 210 193 194 200 202 208 219 221 214 208 209 213 218 221 224 228 228 222 216 216 218 219 219 219 218 217 216 214 214 217 218 219 221 222 222 222
206 209 205 198 201 210 212 211 211 212 212 211 211 211 207 204 203 198 194 204 220 228 232 232 227 228 229 203 185 186 196 200 207 217 224 222 216 215 217 220 223 227 232 235 230 222 219 220 220 219 219 221 223 224 221 218 221 225 226 228 230 230 229
205 207 205 200 202 208 212 211 209 209 210 210 213 214 207 204 203 195 192 196 198 210 220 224 226 225 221 209 197 195 201 207 216 225 229 228 222 220 223 225 228 231 235 237 235 230 228 227 224 221 220 221 222 224 223 218 217 222 223 226 231 233 233
208 207 206 203 203 206 211 214 211 209 210 211 214 216 210 205 201 196 197 195 188 198 210 214 220 220 216 217 215 211 212 216 224 230 232 231 228 229 232 234 234 234 234 236 237 237 236 234 228 223 222 224 224 223 222 219 218 220 221 222 224 224 226
216 211 209 207 205 204 208 214 215 212 211 214 216 215 210 205 200 202 207 202 194 201 207 209 215 216 213 216 218 216 215 217 222 229 236 239 238 239 242 243 241 237 234 236 239 239 239 238 232 226 224 225 226 225 225 225 225 226 224 223 221 217 218
224 219 214 208 204 203 205 211 216 216 215 217 218 215 211 207 204 208 212 209 205 207 207 207 212 213 212 214 217 217 215 213 216 221 227 232 232 231 235 239 239 235 232 236 241 242 242 239 234 229 227 229 228 225 227 230 231 231 228 224 221 219 219
230 226 220 210 203 203 205 208 213 216 218 220 219 216 213 212 210 211 214 214 213 213 212 213 214 214 213 213 216 219 218 219 225 230 230 224 215 215 223 233 240 237 235 240 244 245 245 240 235 231 230 230 230 229 231 232 231 230 230 227 224 223 223
234 231 228 220 209 205 206 208 211 215 219 221 221 218 217 216 213 212 214 217 218 218 216 215 215 215 214 213 214 217 218 221 229 237 241 237 231 230 236 245 252 253 255 255 252 249 246 240 234 230 228 227 229 231 233 232 230 231 232 231 228 224 223
238 235 233 230 220 210 207 209 211 215 219 222 223 221 219 219 216 214 215 218 220 224 224 220 217 216 215 213 212 213 214 218 224 230 234 235 236 236 238 244 248 250 251 253 256 258 255 244 234 228 227 228 229 232 235 234 231 229 228 229 229 224 222
240 240 238 234 227 218 213 212 213 215 218 222 223 221 220 222 222 220 219 219 222 225 227 225 221 217 214 213 214 215 215 215 218 223 225 226 228 231 236 245 250 251 249 250 254 258 257 247 236 227 226 230 233 236 237 234 229 226 226 227 225 220 220
237 240 240 237 230 222 217 217 216 216 218 221 223 222 221 223 226 226 224 222 224 225 225 227 227 224 221 219 221 223 223 222 221 222 225 227 228 230 238 250 258 258 254 250 248 248 246 242 239 232 227 228 231 233 232 230 226 227 230 229 224 219 221
234 235 237 238 234 226 221 219 218 218 220 221 222 224 224 224 227 228 225 224 227 226 223 226 231 229 226 225 226 229 230 230 229 228 229 233 236 238 243 253 260 257 254 254 251 248 245 242 242 237 226 221 220 220 220 219 222 225 227 223 219 218 222
237 234 233 235 234 231 226 224 221 219 220 220 222 224 225 225 226 228 227 228 232 231 227 228 233 233 230 228 230 233 234 235 238 238 237 240 243 246 249 254 257 255 254 255 255 253 250 246 239 232 228 224 221 223 224 221 220 223 222 216 213 220 229
242 236 232 231 231 230 229 227 224 220 219 221 223 224 225 225 226 228 230 232 233 232 232 234 236 238 235 231 231 233 234 237 242 245 244 243 245 249 252 253 255 256 256 252 249 250 250 247 240 237 243 247 244 239 236 233 233 238 240 238 239 245 250
243 237 232 229 228 228 229 230 227 224 222 223 224 224 224 224 224 226 229 231 231 230 232 234 233 231 231 235 236 234 232 234 238 242 243 243 244 246 248 249 250 251 251 249 246 244 245 247 247 248 250 252 249 245 243 245 249 253 255 254 251 250 251
241 239 235 230 227 227 230 231 230 227 225 225 226 225 224 222 222 224 226 230 231 232 234 238 237 234 235 244 250 246 237 231 233 238 240 241 244 244 242 243 245 246 246 246 244 241 241 246 251 252 250 250 250 250 250 251 253 254 255 257 256 254 253
238 236 234 230 228 228 229 231 231 229 227 226 227 226 222 220 222 224 226 229 232 234 238 241 243 243 244 246 247 247 242 235 234 239 240 237 239 241 239 238 240 242 244 243 242 240 239 241 244 244 243 243 245 248 249 250 251 251 252 254 255 254 253
242 237 233 229 228 228 229 229 229 229 227 227 227 225 221 220 222 226 229 231 234 236 240 242 243 243 241 235 232 246 257 250 241 241 243 240 240 247 249 242 237 236 232 228 226 227 225 224 226 231 236 241 244 245 246 248 249 251 251 251 251 251 249
249 242 234 228 225 225 227 227 225 224 226 227 226 225 224 224 226 228 231 234 237 239 241 242 243 242 240 242 251 266 273 264 249 243 247 252 256 260 261 254 245 239 229 218 213 215 219 222 228 234 238 242 244 245 247 248 250 251 251 251 253 253 250
253 242 233 227 224 221 222 223 222 221 223 225 225 227 229 231 232 233 234 237 241 242 242 242 243 246 251 257 264 269 268 261 253 249 252 258 262 262 259 254 248 246 242 235 231 231 234 237 242 245 245 244 243 244 245 247 249 251 251 252 253 254 253
253 237 225 220 219 219 218 217 216 217 219 221 222 225 229 232 233 234 236 238 240 242 242 242 242 246 253 258 261 261 257 254 256 255 252 251 254 257 257 254 249 247 248 247 245 243 243 245 247 249 249 247 245 244 243 245 247 250 252 253 253 254 254
248 234 221 212 208 209 210 212 213 213 214 215 216 218 222 225 224 225 228 233 237 239 240 241 242 245 249 252 252 251 249 248 249 247 241 240 243 247 251 251 249 248 249 252 252 251 249 249 249 249 249 248 248 247 246 247 248 251 253 255 256 255 256
242 239 224 210 203 203 205 208 209 207 206 208 208 208 210 213 213 213 217 222 228 232 232 234 236 238 239 238 237 238 239 238 237 235 234 236 238 241 245 247 248 247 246 247 249 250 250 250 250 250 249 248 248 248 248 249 250 252 254 257 258 258 258
232 237 219 203 203 206 205 199 197 196 197 201 202 199 200 201 199 202 207 211 215 218 219 221 224 224 223 221 221 225 228 230 231 232 233 235 236 238 241 244 246 246 245 244 244 245 246 247 248 249 250 250 248 247 247 247 248 250 252 255 257 258 259
222 227 213 197 201 206 201 192 188 188 189 193 194 194 196 197 194 194 197 201 204 206 207 209 211 212 213 214 216 218 222 226 230 234 235 235 235 237 239 241 242 244 245 245 244 243 244 245 246 247 249 250 250 251 250 249 248 249 250 252 254 256 258
218 219 207 190 189 192 188 183 183 183 183 187 191 189 189 192 192 191 193 195 197 200 202 204 205 207 210 213 216 219 223 227 230 234 237 238 238 238 239 240 241 243 245 246 246 246 246 246 246 246 247 248 250 251 252 252 252 251 251 252 253 255 256
216 213 203 188 178 182 179 171 168 170 173 179 186 184 183 189 193 194 196 198 199 201 204 207 209 210 212 215 218 221 224 226 229 232 235 237 239 239 239 240 241 243 245 247 249 249 250 250 250 250 250 250 250 251 253 255 255 256 256 256 255 255 256
215 201 189 180 177 187 185 167 158 160 164 169 176 177 179 185 190 192 196 199 199 200 202 206 211 213 215 218 219 221 223 225 226 229 231 234 237 239 240 241 242 243 246 248 251 253 255 256 256 256 256 255 255 255 256 257 258 259 260 260 260 260 259
Height
5835 5836 5838 5840 5842 5844 5846 5847 5849 5850 5851 5853 5854 5855 5856 5857 5858 5858 5858 5858 5858 5858 5858 5858 5859 5862 5866 5869 5871 5874 5877 5879 5880 5883 5884 5886 5889 5893 5896 5897 5899 5901 5903 5906 5908 5909 5911 5912 5915 5917 5919 5920 5921 5923 5924 5925 5926 5928 5929 5931 5932 5933 5933
5835 5835 5837 5838 5840 5842 5844 5846 5849 5849 5849 5852 5853 5854 5855 5856 5857 5857 5857 5857 5857 5857 5858 5857 5859 5861 5864 5867 5870 5872 5875 5877 5879 5882 5884 5886 5889 5892 5894 5896 5897 5899 5901 5903 5905 5907 5909 5911 5912 5915 5916 5918 5919 5921 5923 5924 5925 5926 5928 5929 5931 5932 5933
5834 5835 5836 5836 5838 5840 5842 5844 5846 5846 5848 5850 5851 5852 5854 5854 5855 5855 5855 5856 5856 5856 5857 5857 5857 5859 5861 5864 5867 5869 5871 5874 5878 5882 5884 5885 5888 5890 5893 5894 5895 5897 5899 5902 5904 5906 5908 5909 5910 5912 5914 5916 5918 5920 5921 5923 5924 5925 5927 5928 5929 5931 5932
5833 5834 5834 5835 5836 5838 5839 5841 5843 5844 5846 5847 5848 5850 5851 5852 5853 5854 5854 5855 5855 5856 5856 5856 5856 5857 5859 5861 5864 5866 5868 5871 5876 5879 5882 5884 5886 5889 5891 5893 5894 5896 5898 5900 5903 5904 5906 5907 5909 5910 5913 5915 5917 5918 5920 5922 5923 5924 5926 5927 5927 5928 5929
5832 5833 5833 5834 5835 5836 5838 5839 5840 5842 5844 5845 5847 5849 5850 5851 5852 5853 5853 5854 5854 5855 5856 5856 5856 5856 5858 5860 5861 5863 5864 5868 5873 5876 5880 5882 5885 5887 5889 5891 5894 5895 5897 5899 5901 5902 5904 5906 5906 5909 5912 5914 5915 5916 5918 5920 5921 5923 5924 5924 5925 5926 5927
5831 5831 5831 5832 5833 5834 5835 5836 5838 5840 5842 5843 5845 5847 5849 5851 5852 5852 5853 5853 5854 5855 5856 5856 5856 5856 5857 5859 5861 5862 5864 5868 5872 5876 5879 5882 5884 5886 5888 5889 5891 5892 5894 5896 5898 5900 5902 5904 5905 5907 5910 5912 5913 5915 5916 5917 5919 5921 5921 5922 5923 5924 5925
5829 5828 5829 5831 5832 5833 5835 5836 5838 5840 5841 5842 5844 5846 5848 5850 5850 5851 5852 5853 5854 5855 5856 5856 5856 5856 5857 5859 5860 5862 5865 5868 5871 5874 5876 5879 5881 5883 5885 5887 5888 5891 5893 5895 5896 5898 5899 5901 5903 5905 5907 5910 5911 5912 5913 5914 5916 5918 5919 5919 5920 5921 5923
5826 5826 5828 5830 5831 5833 5835 5837 5838 5840 5841 5841 5843 5845 5847 5848 5849 5850 5851 5852 5854 5855 5855 5856 5857 5857 5857 5858 5860 5862 5864 5867 5869 5871 5873 5875 5877 5879 5881 5884 5887 5890 5892 5894 5895 5897 5899 5899 5899 5900 5903 5906 5909 5910 5911 5912 5914 5915 5916 5916 5917 5918 5919
5824 5824 5826 5828 5830 5832 5833 5835 5837 5838 5839 5840 5843 5844 5845 5847 5848 5850 5851 5852 5853 5854 5855 5856 5856 5857 5857 5858 5860 5862 5864 5866 5868 5869 5871 5872 5875 5878 5880 5883 5885 5887 5889 5890 5892 5895 5897 5898 5898 5898 5899 5901 5904 5907 5908 5909 5910 5911 5912 5913 5914 5915 5916
5821 5822 5823 5825 5828 5830 5831 5833 5835 5836 5838 5840 5842 5843 5844 5846 5848 5849 5850 5851 5852 5854 5855 5856 5856 5857 5858 5859 5860 5862 5864 5865 5867 5868 5869 5871 5873 5876 5879 5881 5883 5884 5885 5887 5889 5891 5893 5895 5896 5897 5898 5899 5901 5903 5904 5906 5907 5909 5910 5911 5912 5913 5913
5818 5819 5821 5824 5826 5827 5829 5831 5833 5835 5836 5839 5840 5841 5843 5845 5847 5848 5849 5850 5851 5853 5854 5856 5856 5857 5858 5859 5860 5862 5863 5865 5866 5867 5868 5870 5872 5875 5877 5879 5881 5882 5883 5884 5886 5888 5890 5891 5893 5895 5896 5897 5900 5902 5904 5907 5909 5909 5909 5910 5911 5912 5913
5815 5817 5820 5823 5824 5825 5826 5828 5830 5833 5835 5837 5838 5840 5843 5844 5846 5848 5848 5849 5851 5853 5854 5855 5856 5857 5859 5860 5861 5862 5864 5865 5866 5867 5868 5869 5871 5874 5876 5877 5879 5880 5881 5882 5883 5885 5887 5889 5890 5891 5893 5895 5898 5901 5903 5905 5906 5905 5905 5907 5909 5911 5913
5813 5815 5818 5820 5822 5823 5824 5826 5828 5831 5833 5835 5836 5839 5841 5843 5845 5847 5847 5848 5850 5852 5853 5854 5855 5857 5858 5860 5861 5862 5864 5865 5865 5866 5867 5868 5870 5872 5874 5875 5876 5878 5879 5880 5881 5882 5884 5885 5886 5889 5891 5893 5896 5898 5900 5901 5901 5902 5903 5904 5907 5909 5910
5812 5814 5816 5818 5820 5821 5822 5824 5826 5829 5831 5833 5834 5837 5840 5842 5844 5846 5846 5847 5849 5850 5852 5853 5855 5856 5858 5859 5861 5862 5863 5864 5865 5865 5866 5867 5868 5870 5871 5872 5873 5875 5877 5878 5878 5879 5880 5881 5883 5886 5889 5891 5893 5895 5897 5898 5898 5900 5902 5903 5905 5906 5906
5809 5812 5813 5815 5817 5819 5820 5822 5824 5827 5829 5830 5832 5835 5837 5840 5843 5844 5846 5847 5847 5849 5851 5852 5854 5855 5857 5858 5860 5861 5862 5863 5864 5865 5866 5866 5867 5868 5869 5870 5871 5872 5874 5876 5876 5877 5877 5879 5881 5884 5887 5889 5890 5892 5893 5895 5896 5898 5898 5899 5901 5902 5902
5806 5808 5810 5812 5814 5816 5818 5819 5822 5824 5826 5827 5829 5833 5835 5838 5841 5842 5844 5845 5846 5848 5850 5851 5853 5854 5855 5857 5858 5860 5861 5862 5863 5864 5865 5866 5867 5868 5868 5869 5869 5871 5872 5874 5874 5874 5874 5875 5878 5880 5883 5885 5887 5888 5890 5892 5893 5894 5894 5895 5897 5898 5900
5803 5805 5807 5809 5811 5813 5815 5818 5820 5822 5823 5825 5828 5831 5834 5836 5838 5840 5842 5843 5844 5846 5848 5849 5851 5852 5854 5855 5856 5858 5860 5861 5862 5862 5863 5865 5866 5867 5868 5868 5868 5869 5870 5871 5872 5871 5871 5872 5874 5876 5879 5881 5883 5885 5886 5887 5889 5889 5890 5891 5893 5895 5896
5801 5801 5804 5806 5809 5811 5814 5816 5818 5820 5822 5823 5826 5829 5832 5834 5835 5837 5839 5841 5843 5844 5845 5847 5848 5850 5851 5853 5854 5856 5858 5859 5860 5861 5862 5863 5864 5865 5866 5866 5866 5867 5868 5869 5870 5870 5870 5870 5871 5873 5875 5877 5879 5881 5881 5882 5884 5885 5886 5887 5889 5891 5893
5798 5799 5801 5803 5806 5809 5813 5815 5816 5818 5820 5821 5823 5826 5829 5831 5832 5834 5837 5840 5841 5841 5841 5842 5843 5845 5847 5850 5852 5854 5855 5856 5857 5858 5860 5861 5862 5863 5863 5863 5863 5864 5866 5868 5869 5869 5868 5869 5870 5871 5873 5874 5876 5877 5877 5879 5880 5881 5882 5884 5886 5888 5890
5796 5797 5798 5800 5803 5807 5810 5812 5814 5816 5818 5819 5821 5824 5826 5827 5829 5831 5834 5837 5838 5836 5836 5838 5840 5842 5845 5847 5849 5851 5852 5854 5855 5856 5858 5858 5859 5861 5861 5860 5861 5864 5865 5866 5867 5867 5866 5867 5868 5869 5870 5871 5872 5873 5875 5876 5877 5879 5880 5882 5884 5885 5887
5794 5794 5795 5797 5800 5804 5807 5810 5812 5814 5815 5816 5819 5821 5822 5824 5826 5827 5830 5833 5834 5833 5834 5837 5839 5841 5844 5845 5847 5849 5850 5851 5852 5854 5856 5856 5857 5858 5858 5858 5861 5863 5863 5863 5864 5865 5865 5866 5866 5867 5868 5868 5869 5871 5872 5874 5875 5876 5877 5879 5881 5883 5884
5792 5792 5793 5794 5797 5800 5804 5806 5809 5810 5811 5813 5816 5818 5819 5821 5823 5824 5827 5829 5831 5832 5834 5836 5838 5840 5842 5843 5845 5847 5848 5848 5849 5851 5853 5854 5855 5855 5855 5856 5858 5859 5860 5862 5863 5863 5864 5865 5865 5865 5866 5867 5869 5870 5870 5871 5873 5874 5875 5876 5877 5879 5881
5790 5791 5791 5792 5794 5796 5799 5801 5803 5806 5808 5810 5813 5815 5816 5819 5821 5822 5824 5827 5829 5831 5832 5834 5836 5838 5839 5841 5843 5845 5846 5846 5848 5849 5851 5852 5853 5853 5853 5854 5855 5856 5857 5860 5861 5861 5862 5863 5863 5864 5864 5865 5868 5869 5869 5869 5871 5872 5872 5873 5875 5877 5879
5787 5788 5788 5789 5791 5793 5794 5796 5798 5801 5804 5807 5809 5812 5814 5816 5818 5821 5823 5825 5827 5829 5831 5833 5834 5835 5836 5838 5840 5842 5843 5844 5845 5846 5848 5849 5850 5851 5851 5851 5852 5853 5854 5856 5858 5860 5860 5860 5861 5862 5862 5863 5865 5866 5867 5868 5869 5870 5870 5872 5873 5875 5876
5784 5785 5785 5786 5787 5789 5790 5792 5794 5797 5800 5803 5806 5809 5811 5813 5815 5818 5820 5822 5825 5827 5829 5831 5833 5833 5834 5836 5837 5839 5840 5841 5842 5843 5844 5846 5847 5847 5847 5848 5849 5850 5851 5853 5855 5857 5858 5859 5859 5860 5860 5861 5862 5864 5865 5866 5867 5868 5869 5870 5871 5872 5874
5782 5782 5782 5783 5784 5785 5787 5789 5791 5793 5797 5800 5803 5806 5808 5810 5812 5814 5817 5819 5822 5825 5827 5829 5831 5832 5832 5833 5835 5836 5838 5839 5839 5840 5841 5843 5844 5844 5845 5845 5846 5847 5848 5850 5852 5854 5855 5857 5858 5859 5859 5860 5861 5862 5863 5864 5865 5866 5867 5868 5869 5870 5871
5779 5779 5780 5780 5781 5783 5784 5786 5788 5790 5793 5796 5799 5802 5804 5807 5809 5811 5813 5816 5819 5822 5825 5827 5829 5830 5830 5831 5832 5833 5835 5837 5837 5838 5838 5840 5841 5842 5842 5843 5844 5845 5846 5847 5849 5851 5852 5854 5856 5857 5858 5859 5859 5860 5861 5862 5863 5864 5865 5866 5867 5868 5869
5777 5777 5777 5778 5779 5780 5782 5783 5785 5787 5789 5792 5795 5798 5801 5804 5806 5808 5811 5813 5816 5819 5822 5824 5825 5827 5828 5828 5829 5830 5832 5834 5835 5835 5836 5837 5838 5839 5840 5842 5843 5844 5845 5846 5847 5849 5850 5851 5853 5854 5856 5857 5858 5859 5859 5860 5861 5862 5863 5864 5864 5866 5867
5775 5774 5775 5776 5777 5778 5779 5781 5783 5785 5787 5790 5793 5796 5798 5801 5804 5806 5808 5811 5813 5815 5818 5820 5822 5824 5825 5826 5826 5828 5830 5831 5832 5833 5833 5834 5836 5837 5838 5840 5841 5843 5844 5845 5846 5847 5848 5849 5850 5852 5853 5855 5856 5857 5857 5858 5858 5859 5860 5860 5861 5862 5863
5772 5772 5773 5774 5775 5776 5778 5779 5781 5783 5785 5788 5790 5793 5796 5799 5801 5804 5806 5808 5810 5812 5815 5817 5819 5821 5823 5823 5824 5825 5827 5827 5829 5830 5831 5832 5833 5834 5835 5837 5839 5840 5841 5842 5844 5845 5846 5847 5848 5848 5850 5851 5852 5853 5854 5855 5855 5856 5856 5857 5857 5858 5859
5771 5771 5771 5772 5773 5774 5776 5777 5779 5781 5784 5786 5788 5791 5794 5796 5799 5801 5803 5805 5807 5809 5811 5814 5816 5818 5820 5821 5821 5822 5824 5825 5826 5827 5829 5830 5832 5833 5834 5835 5836 5837 5839 5840 5841 5842 5843 5844 5845 5846 5846 5847 5848 5849 5850 5851 5851 5852 5852 5853 5854 5854 5855
5770 5770 5770 5770 5771 5771 5773 5776 5777 5778 5781 5783 5785 5787 5790 5793 5795 5798 5800 5802 5804 5806 5808 5810 5812 5814 5816 5817 5818 5819 5820 5822 5823 5825 5827 5828 5830 5831 5832 5833 5834 5835 5836 5837 5838 5839 5840 5841 5842 5843 5844 5844 5845 5846 5847 5847 5848 5848 5848 5849 5850 5850 5851
5770 5769 5769 5769 5769 5769 5771 5773 5774 5775 5777 5780 5782 5785 5788 5790 5792 5794 5797 5799 5802 5804 5805 5807 5809 5810 5812 5813 5815 5816 5817 5818 5820 5822 5824 5826 5827 5828 5830 5831 5831 5832 5833 5834 5835 5836 5837 5838 5839 5839 5840 5841 5842 5842 5843 5844 5844 5845 5845 5845 5845 5846 5846
5769 5769 5768 5768 5768 5768 5770 5771 5772 5773 5775 5778 5780 5783 5786 5788 5791 5793 5795 5797 5799 5801 5803 5805 5806 5808 5809 5810 5812 5813 5814 5816 5817 5819 5821 5822 5824 5825 5826 5828 5829 5829 5830 5831 5831 5832 5833 5834 5834 5835 5836 5837 5837 5838 5838 5839 5840 5840 5841 5841 5841 5841 5842
5768 5769 5769 5768 5768 5769 5769 5770 5771 5772 5774 5776 5779 5781 5783 5786 5788 5791 5793 5795 5797 5799 5800 5802 5804 5805 5807 5808 5809 5811 5812 5814 5815 5816 5817 5819 5820 5822 5823 5824 5825 5826 5827 5827 5827 5828 5829 5829 5830 5831 5831 5832 5833 5833 5833 5834 5834 5835 5836 5836 5837 5837 5837
5768 5769 5769 5769 5769 5769 5769 5769 5770 5771 5773 5775 5777 5779 5781 5784 5786 5789 5791 5793 5795 5796 5798 5799 5801 5803 5805 5806 5807 5809 5810 5812 5813 5814 5815 5816 5817 5818 5819 5820 5821 5822 5823 5823 5823 5824 5824 5825 5825 5826 5827 5827 5828 5828 5828 5828 5829 5829 5830 5831 5831 5831 5832
5769 5769 5769 5769 5769 5769 5770 5770 5771 5772 5774 5776 5778 5780 5781 5783 5785 5787 5789 5791 5793 5794 5796 5798 5799 5801 5803 5804 5806 5807 5808 5810 5811 5812 5813 5813 5814 5815 5816 5817 5818 5818 5819 5819 5820 5820 5820 5820 5821 5821 5822 5822 5823 5823 5823 5823 5824 5824 5824 5824 5825 5825 5825